Regional Weather Roundup
Issued by NWS

Current Version | Previous Version | Text Only | Print | Product List | Glossary On
Versions: 1 2 3 4 5 6 7 8 9 10 11 12 13 14 15 16 17 18 19 20 21 22 23 24 25 26 27 28 29 30 31 32 33 34 35 36 37 38 39 40 41 42 43 44 45 46 47 48 49 50
000
ASUS44 KMEG 200010
RWRTN
TENNESSEE HOURLY STATE WEATHER ROUNDUP
NATIONAL WEATHER SERVICE MEMPHIS TN
700 PM CDT SAT AUG 19 2017

TNZ002-004-019-021-049-052-054-088>092-200100-
WEST TENNESSEE

CITY           SKY/WX    TMP DP  RH WIND       PRES   REMARKS
MEMPHIS INTL   PTCLDY    89  73  59 NW3       29.93S HX  97
NWS MEMPHIS      N/A     90 N/A N/A MISG        N/A
JACKSON        CLEAR     88  73  61 NW5       29.94S HX  95
DYERSBURG      CLEAR     83  76  79 CALM      29.94S HX  91
SOMERVILLE     CLEAR     86  77  74 CALM      29.93S HX  97
COVINGTON      CLEAR     84  79  84 CALM      29.93S HX  96
UNION CITY     CLEAR     86  73  66 CALM      29.92S HX  93
BOLIVAR        CLEAR     88  75  66 CALM      29.94R HX  97
PARIS          CLEAR     86  75  70 CALM      29.93S HX  95
HUNTINGDON     CLEAR     86  73  66 CALM      29.93S HX  93
SELMER         CLEAR     86  75  70 CALM      29.94R HX  95
SAVANNAH       CLEAR     88  75  66 CALM      29.93R HX  97
$$

TNZ008-025-027-028-033-062-065-066-200100-
NORTH MIDDLE TENNESSEE

CITY           SKY/WX    TMP DP  RH WIND       PRES   REMARKS
NASHVILLE      PTCLDY    88  66  48 W5        29.96R HX  90
PORTLAND       CLOUDY    81  70  69 W5        29.96S
CLARKSVILLE    CLEAR     82  71  69 E6        29.95R
SMYRNA         CLEAR     86  70  58 SW5       29.96R HX  90
COOKEVILLE     CLEAR     79  70  73 CALM      29.99R
GALLATIN       PTCLDY    86  68  54 CALM      29.97S
CROSSVILLE     CLEAR     77  64  64 CALM      30.05R
$$

TNZ061-075-076-078-094-096-097-200100-
SOUTH MIDDLE TENNESSEE

CITY           SKY/WX    TMP DP  RH WIND       PRES   REMARKS
FAYETTEVILLE   CLEAR     84  70  61 CALM      29.98R
TULLAHOMA      CLEAR     82  68  61 S3        30.00S
WINCHESTER     CLEAR     84  66  54 CALM      29.99R
MCMINNVILLE    CLEAR     84  72  65 CALM      29.99R
COLUMBIA       CLEAR     86  72  62 CALM      29.93S HX  92
$$

TNZ017-018-042-046-047-200100-
NORTHEAST TENNESSEE

CITY           SKY/WX    TMP DP  RH WIND       PRES   REMARKS
TRI CITIES     PTCLDY    81  65  58 W5        30.02R
ELIZABETHTON   CLEAR     75  70  83 CALM      30.03R
$$

TNZ012-013-036-069-073-074-200100-
CENTRAL EAST TENNESSEE

CITY           SKY/WX    TMP DP  RH WIND       PRES   REMARKS
KNOXVILLE      CLEAR     83  62  49 CALM      29.98R
OAK RIDGE      CLEAR     84  66  54 S3        30.00R
DOWNTOWN KNOXV CLEAR     77  72  83 CALM      29.97R
GATLINBURG     CLEAR     82  63  51 NW5       29.99R
MORRISTOWN     CLEAR     82  64  54 NW3       30.01R
JACKSBORO      CLEAR     79  70  73 CALM      30.03R
$$

TNZ083-085-099-200100-
SOUTHEAST TENNESSEE

CITY           SKY/WX    TMP DP  RH WIND       PRES   REMARKS
CHATTANOOGA    PTCLDY    86  64  47 SW5       29.97R
DAYTON         CLEAR     84  72  65 CALM      29.96R
$$

SKY/WX REPORTED AS FAIR MEANS FEW OR NO CLOUDS BELOW
12 THOUSAND FEET.





USA.gov is the U.S. government's official web portal to all federal, state and local government web resources and services.